TimeEDT,TemperatureF,Dew PointF,Humidity,Sea Level PressureIn,VisibilityMPH,Wind Direction,Wind SpeedMPH,Gust SpeedMPH,PrecipitationIn,Events,Conditions,WindDirDegrees,DateUTC
12:56 AM,66.0,55.0,68,30.14,10.0,SSW,5.8,-,N/A,,Clear,210,2013-04-09 04:56:00
1:56 AM,64.9,55.9,73,30.14,10.0,SSW,6.9,-,N/A,,Clear,200,2013-04-09 05:56:00
2:56 AM,64.0,57.0,78,30.12,9.0,SW,5.8,-,N/A,,Clear,220,2013-04-09 06:56:00
3:56 AM,63.0,57.9,84,30.12,9.0,SSW,8.1,-,N/A,,Clear,210,2013-04-09 07:56:00
4:56 AM,60.1,55.9,86,30.12,9.0,WSW,4.6,-,N/A,,Partly Cloudy,250,2013-04-09 08:56:00
5:56 AM,60.1,57.0,90,30.14,9.0,Calm,Calm,-,N/A,,Partly Cloudy,0,2013-04-09 09:56:00
6:56 AM,60.1,57.0,90,30.17,9.0,Calm,Calm,-,N/A,,Scattered Clouds,0,2013-04-09 10:56:00
7:56 AM,62.1,57.9,86,30.19,8.0,Calm,Calm,-,N/A,,Scattered Clouds,0,2013-04-09 11:56:00
8:56 AM,64.9,59.0,81,30.20,9.0,Calm,Calm,-,N/A,,Scattered Clouds,0,2013-04-09 12:56:00
9:56 AM,72.0,61.0,68,30.21,10.0,Calm,Calm,-,N/A,,Partly Cloudy,0,2013-04-09 13:56:00
10:56 AM,75.9,60.1,58,30.21,10.0,SSW,3.5,-,N/A,,Partly Cloudy,210,2013-04-09 14:56:00
11:56 AM,79.0,59.0,50,30.20,10.0,Calm,Calm,-,N/A,,Scattered Clouds,0,2013-04-09 15:56:00
12:56 PM,82.0,57.0,42,30.18,10.0,Calm,Calm,-,N/A,,Mostly Cloudy,0,2013-04-09 16:56:00
1:56 PM,81.0,55.9,42,30.17,10.0,WSW,3.5,-,N/A,,Mostly Cloudy,250,2013-04-09 17:56:00
2:56 PM,84.9,55.0,36,30.14,10.0,South,6.9,-,N/A,,Mostly Cloudy,180,2013-04-09 18:56:00
3:56 PM,84.9,54.0,34,30.12,10.0,SSW,8.1,19.6,N/A,,Mostly Cloudy,200,2013-04-09 19:56:00
4:56 PM,86.0,53.1,32,30.11,10.0,South,9.2,-,N/A,,Mostly Cloudy,190,2013-04-09 20:56:00
5:56 PM,84.0,53.1,34,30.10,10.0,SSW,10.4,-,N/A,,Scattered Clouds,200,2013-04-09 21:56:00
6:56 PM,82.9,54.0,37,30.10,10.0,SSW,6.9,-,N/A,,Scattered Clouds,210,2013-04-09 22:56:00
7:56 PM,80.1,54.0,40,30.11,10.0,South,3.5,-,N/A,,Partly Cloudy,190,2013-04-09 23:56:00
8:56 PM,75.9,55.0,48,30.12,10.0,South,3.5,-,N/A,,Clear,190,2013-04-10 00:56:00
9:56 PM,72.0,55.9,57,30.13,10.0,SW,3.5,-,N/A,,Clear,230,2013-04-10 01:56:00
10:56 PM,71.1,57.9,63,30.12,10.0,South,8.1,-,N/A,,Clear,190,2013-04-10 02:56:00
11:56 PM,71.1,60.1,68,30.11,10.0,SSW,10.4,19.6,N/A,,Scattered Clouds,200,2013-04-10 03:56:00